Regional Weather Roundup
Issued by NWS

Home | Current Version | Previous Version | Text Only | Print | Product List | Glossary Off
Versions: 1 2 3 4 5 6 7 8 9 10 11 12 13 14 15 16 17 18 19 20 21 22 23 24 25 26 27 28 29 30 31 32 33 34 35 36 37 38 39 40 41 42 43 44 45 46 47 48 49 50

671
ASUS45 KBOI 111910
RWRID

IDAHO REGIONAL WEATHER ROUNDUP
NATIONAL WEATHER SERVICE BOISE ID
1200 PM MST THU FEB 11 2016

NOTE: "FAIR" INDICATES FEW OR NO CLOUDS BELOW 12000 FEET
WITH NO SIGNIFICANT WEATHER AND/OR OBSTRUCTIONS TO VISIBILITY

IDZ012-014-112000-
SOUTHWEST IDAHO


CITY           SKY/WX    TMP DP  RH WIND       PRES   REMARKS
BOISE          SUNNY     41  31  67 S5        30.39F
CALDWELL       PTSUNNY   38  33  82 VRB5      30.42S WCI  34
$$

IDZ016-017-112000-
SOUTHCENTRAL IDAHO


CITY           SKY/WX    TMP DP  RH WIND       PRES   REMARKS
BURLEY         MOSUNNY   44  31  60 NE12      30.37F
JEROME         MOSUNNY   32  25  75 NE20      30.38F WCI  20
TWIN FALLS     SUNNY     38  32  79 NE8       30.38S WCI  32
$$

IDZ019>023-112000-
SOUTHEAST IDAHO


CITY           SKY/WX    TMP DP  RH WIND       PRES   REMARKS
IDAHO FALLS    CLOUDY    23  19  85 N8        30.44S WCI  14
POCATELLO      CLOUDY    32  23  69 NE7       30.45R WCI  26
REXBURG        CLOUDY    28  20  71 CALM      30.43S
$$

IDZ006-010-011-018-031-032-112000-
CENTRAL IDAHO MOUNTAINS


CITY           SKY/WX    TMP DP  RH WIND       PRES   REMARKS
MCCALL         CLOUDY    34  29  82 S3        30.33F
HAILEY         PTSUNNY   36  25  64 CALM      30.39S
STANLEY          N/A     26  17  68 CALM      30.39F
SALMON         CLOUDY    21  18  86 CALM      30.44S
CHALLIS        CLOUDY    24  18  77 CALM      30.39S
$$

IDZ002-004-006-007-026-112000-
NORTHERN IDAHO


CITY           SKY/WX    TMP DP  RH WIND       PRES   REMARKS
LEWISTON       CLOUDY    49  37  63 E10       30.29F
LOWELL           N/A     42  36  79 CALM      30.37F
COEUR D`ALENE  CLOUDY    37  37 100 NE9       30.31R WCI  31
MULLAN PASS    CLOUDY    34  31  88 CALM      30.29R
$$




USA.gov is the U.S. government's official web portal to all federal, state and local government web resources and services.